Terminal Aerodrome Forecast
Issued by NWS

Home | Current Version | Previous Version | Text Only | Print | Product List | Glossary On
Versions: 1 2 3 4 5 6 7 8 9 10 11 12
000
FTUS46 KMTR 260520
TAFSJC
TAF
KSJC 260520Z 2606/2706 VRB04KT P6SM SKC
     FM260800 14004KT P6SM SKC
     FM261900 30010KT P6SM SKC
     FM270400 VRB04KT P6SM SKC=

USA.gov is the U.S. government's official web portal to all federal, state and local government web resources and services.